Temp
13 14 14 14 14 14 14 14 14 14 13 13 13 13 12 12 12 12 12 12 13 13 13 13 12 12 12 12 12 12 12 11 11 11 10 10 9 8 8 7 7 7 7 7 7 5 5 5 5 6 6 6 6 6 7 7 7 8 8 8 8 8 8 8 8 8 9 9 9 8 8 8 8 8 7 7 7 7 7 7 7 6 7 7 7
12 13 13 13 13 13 13 13 13 13 13 13 13 13 12 12 12 12 12 12 12 13 13 13 13 13 13 13 12 12 12 12 11 11 11 11 10 10 9 9 9 9 8 8 8 6 5 5 5 5 5 5 5 5 5 6 6 6 7 7 7 7 8 8 7 7 7 8 8 8 8 7 7 7 7 7 7 6 6 6 6 6 6 6 6
11 12 12 12 12 12 12 12 12 12 12 12 12 12 12 12 12 12 12 12 13 13 13 13 13 13 12 12 12 12 12 11 11 11 10 10 10 10 10 9 9 9 9 8 8 7 5 5 6 6 4 4 4 4 4 4 5 5 5 5 6 6 6 7 7 6 6 7 7 7 7 7 6 6 6 6 6 6 5 5 5 5 5 5 5
10 11 11 11 11 12 12 12 12 12 12 12 12 12 12 12 12 13 13 13 13 13 12 12 12 12 12 12 11 11 11 10 10 10 9 9 8 8 8 8 8 7 7 7 7 6 5 4 6 6 4 3 3 3 3 3 4 4 4 5 5 5 5 6 6 6 6 6 6 6 6 6 6 6 6 5 5 5 5 5 5 4 4 4 5
10 10 11 11 11 11 11 12 12 12 12 12 12 12 12 12 12 12 12 12 12 12 12 11 11 11 11 11 11 10 10 10 9 9 8 8 7 7 7 7 7 7 7 7 6 6 5 4 5 4 3 2 2 3 3 3 3 3 4 4 4 4 5 5 5 5 5 5 5 6 6 5 5 5 5 5 5 4 4 4 4 3 3 4 4
9 10 10 11 11 11 11 12 12 12 12 12 12 12 12 12 12 11 11 11 11 11 11 11 11 10 10 10 10 10 10 9 9 9 9 8 8 8 8 8 8 8 8 8 8 7 6 6 6 4 3 2 2 2 2 2 3 3 3 3 3 4 4 4 4 4 5 4 5 5 5 5 5 5 4 4 4 4 3 3 3 3 3 3 3
9 10 10 11 11 11 11 11 11 11 11 11 11 11 11 11 11 10 10 10 10 10 10 10 10 10 10 10 10 10 10 10 9 9 9 9 8 8 8 8 9 9 9 8 8 8 8 8 7 6 5 3 3 2 2 2 2 2 2 3 3 3 3 4 4 4 4 4 4 4 4 4 4 4 4 4 3 2 2 2 2 2 2 2 2
10 10 11 11 11 11 10 10 10 10 10 10 10 10 10 10 10 10 10 10 10 10 10 10 10 10 10 10 10 10 10 9 9 9 9 8 8 8 8 8 8 8 8 8 8 8 8 8 8 7 7 6 5 4 3 2 1 2 2 2 2 3 3 3 3 3 3 3 3 3 4 4 4 3 3 3 2 1 2 1 1 1 1 1 1
11 11 11 11 10 9 9 9 9 9 9 9 9 9 9 10 10 10 10 10 10 10 10 10 10 10 10 10 10 10 9 9 9 8 8 8 7 7 7 7 7 7 7 7 7 7 7 7 7 7 7 7 7 6 5 3 2 1 1 2 2 2 2 2 3 3 3 3 3 3 3 3 3 3 3 3 2 2 2 1 0 1 1 -0 -1
10 10 10 9 9 8 9 9 9 8 9 9 9 9 9 9 10 10 10 10 10 10 10 10 10 9 9 9 9 9 9 8 8 8 7 7 7 6 6 6 6 6 6 6 6 6 6 6 6 6 6 6 6 6 6 6 4 2 2 1 1 2 2 2 2 2 2 2 2 3 3 3 3 3 3 3 3 3 2 1 0 0 -1 -2 -2
9 9 8 8 8 8 8 8 8 8 9 9 9 9 9 9 10 10 10 10 9 9 9 9 9 8 8 8 8 8 8 8 8 7 7 7 6 6 5 5 5 5 5 5 5 6 6 5 5 5 5 5 5 5 5 6 5 4 3 2 1 1 2 2 2 2 2 2 2 2 2 2 3 3 3 3 3 3 2 1 0 -1 -1 -2 -2
8 8 8 8 8 8 8 8 8 9 9 9 9 9 9 9 9 9 9 9 9 9 8 8 8 8 7 7 7 7 8 8 7 7 7 7 6 6 5 5 5 5 4 4 4 5 5 5 5 4 4 4 4 4 4 4 4 4 3 2 1 1 1 1 1 1 1 1 1 2 2 2 2 2 2 2 2 2 2 1 -0 -1 -2 -2 -2
7 7 7 8 8 8 8 8 8 9 8 8 8 9 9 9 8 8 8 8 8 8 8 8 7 7 7 6 6 6 7 7 7 7 7 7 6 5 5 5 5 4 4 4 4 4 4 4 4 4 4 3 3 3 3 3 3 2 2 1 1 1 1 1 1 1 1 1 1 1 2 2 2 2 2 2 2 2 1 0 -0 -1 -2 -2 -1
7 7 7 8 8 8 8 8 8 8 8 8 8 8 8 8 7 7 7 7 7 7 7 7 7 6 6 6 6 6 7 7 7 7 7 7 6 6 5 5 5 5 5 4 4 4 4 3 3 3 4 3 3 3 3 3 2 2 1 1 1 1 1 1 1 1 1 1 1 1 2 2 2 2 2 2 1 1 1 0 -0 -1 -1 -1 -1
7 7 7 7 7 7 7 7 8 8 8 7 7 7 7 7 6 6 6 6 6 6 6 6 6 6 6 6 6 7 7 7 7 7 7 6 6 6 5 5 5 5 5 5 5 4 4 3 3 3 4 4 3 3 3 2 2 1 1 1 1 1 0 0 0 0 1 1 1 1 2 2 2 2 1 1 1 1 1 1 1 0 -1 -1 -1
6 6 6 6 6 6 7 7 7 7 7 7 7 6 6 6 5 5 5 6 6 6 6 6 6 6 7 6 6 7 7 7 7 7 7 6 6 6 5 5 4 4 5 5 5 4 4 3 3 3 3 3 4 3 2 2 1 1 1 1 1 1 0 0 0 0 0 0 1 1 1 1 1 1 1 1 1 1 0 0 0 -0 -1 -2 -3
4 4 4 4 4 5 6 6 6 6 6 6 6 6 5 5 5 5 5 6 6 6 6 6 6 6 7 7 6 6 7 7 6 6 6 6 5 5 4 4 4 4 4 5 5 4 4 3 3 2 2 3 4 3 2 1 1 1 1 1 0 0 -0 -0 -0 -0 -0 -0 -0 0 0 0 1 1 1 1 0 0 0 -1 -1 -1 -2 -2 -3
3 3 3 3 3 4 5 5 5 5 5 5 5 5 5 5 5 5 6 6 6 6 6 6 6 6 6 7 6 5 6 7 6 6 6 5 4 3 3 3 2 3 3 4 4 3 3 3 2 2 2 2 2 2 1 1 0 0 0 0 -0 -0 -0 -0 -0 -1 -0 -0 -0 -0 -0 -0 0 0 0 0 0 0 -0 -1 -1 -1 -2 -2 -3
2 2 2 2 2 3 4 4 5 5 5 4 4 4 5 5 6 6 6 6 6 6 5 6 6 6 6 6 6 6 6 7 7 5 5 4 3 2 2 1 1 2 2 2 2 2 2 2 2 1 1 1 1 1 0 0 -0 -0 -0 -0 -0 -0 -0 -0 -1 -1 -1 -1 -1 -1 -1 -1 -1 -0 -0 -0 -0 -0 -1 -1 -1 -1 -2 -2 -2
1 1 1 2 2 3 4 4 4 4 4 3 3 4 5 5 6 6 6 5 5 5 5 5 6 6 6 6 6 5 5 5 6 5 3 3 2 1 1 0 0 0 0 -0 0 0 0 0 0 0 0 -0 -1 -1 -1 -1 -1 -1 -1 -1 -1 -0 -0 -0 -1 -1 -1 -1 -1 -1 -1 -1 -1 -1 -1 -1 -1 -1 -1 -1 -1 -1 -2 -2 -3
1 1 1 1 2 3 3 3 3 2 2 3 4 5 5 5 5 5 5 5 5 5 5 5 5 6 6 5 5 4 4 3 3 3 1 1 0 -0 -1 -1 -1 -1 -1 -1 -1 -1 -1 -1 -1 -1 -1 -1 -1 -2 -2 -2 -2 -2 -1 -1 -1 -1 -1 -1 -1 -1 -1 -1 -1 -1 -1 -1 -1 -1 -1 -1 -1 -1 -1 -1 -1 -1 -2 -2 -3
1 0 -0 1 2 2 2 2 2 2 2 4 5 5 5 5 5 4 4 4 4 4 3 3 2 3 4 4 3 2 2 1 0 -0 -1 -1 -2 -2 -2 -2 -2 -2 -2 -2 -1 -1 -1 -1 -1 -1 -2 -2 -2 -3 -3 -3 -2 -2 -2 -2 -2 -2 -1 -1 -1 -1 -1 -1 -1 -1 -1 -1 -1 -1 -1 -1 -2 -2 -2 -2 -2 -2 -2 -2 -2
-0 -1 -0 1 1 1 1 1 2 3 4 4 5 5 5 5 4 4 3 3 2 2 0 -1 -1 -1 0 1 1 -1 -1 -1 -2 -3 -3 -3 -3 -3 -3 -3 -3 -2 -2 -2 -2 -2 -2 -2 -2 -2 -3 -3 -3 -3 -3 -3 -3 -3 -3 -3 -3 -2 -2 -2 -2 -2 -1 -1 -1 -1 -1 -1 -1 -1 -2 -2 -2 -2 -2 -2 -2 -2 -2 -3 -3
-1 -1 -1 -1 -0 0 1 2 3 3 4 4 5 4 4 4 3 2 1 -0 -1 -2 -3 -4 -4 -4 -4 -3 -2 -3 -3 -3 -4 -4 -4 -4 -4 -4 -4 -4 -4 -4 -4 -4 -4 -4 -4 -4 -4 -4 -4 -4 -3 -3 -3 -3 -3 -3 -3 -3 -3 -3 -3 -3 -2 -2 -2 -2 -2 -2 -1 -2 -1 -2 -2 -2 -3 -3 -3 -3 -3 -3 -3 -4 -4
-2 -2 -1 -0 1 2 3 3 3 4 4 4 4 3 3 2 1 -0 -1 -3 -4 -5 -6 -6 -6 -6 -6 -6 -5 -5 -4 -5 -5 -5 -5 -5 -5 -5 -5 -5 -6 -6 -6 -6 -5 -5 -5 -5 -4 -4 -4 -4 -4 -3 -3 -3 -3 -3 -3 -3 -3 -3 -3 -3 -3 -2 -2 -2 -2 -2 -2 -2 -2 -2 -3 -3 -4 -4 -4 -4 -5 -5 -5 -5 -5
-2 -1 0 2 3 3 3 3 3 3 3 2 2 1 -0 -1 -2 -3 -4 -5 -6 -7 -7 -7 -7 -7 -7 -7 -7 -6 -6 -6 -6 -6 -6 -6 -6 -6 -6 -7 -6 -6 -6 -6 -6 -5 -5 -5 -5 -4 -4 -4 -4 -3 -3 -3 -3 -3 -3 -3 -3 -3 -3 -3 -3 -2 -2 -2 -2 -2 -2 -2 -2 -3 -4 -4 -5 -5 -5 -5 -6 -6 -6 -6 -7
-0 1 2 2 2 2 2 2 2 2 1 1 1 -0 -2 -3 -5 -6 -6 -6 -7 -8 -8 -8 -8 -8 -8 -8 -8 -8 -7 -7 -7 -7 -7 -7 -7 -7 -7 -7 -7 -7 -6 -6 -6 -6 -6 -5 -5 -5 -4 -4 -4 -4 -3 -3 -3 -3 -3 -3 -3 -3 -3 -3 -2 -2 -2 -2 -2 -2 -2 -3 -4 -5 -5 -6 -6 -6 -6 -6 -7 -8 -8 -7 -8
1 1 1 1 0 0 0 0 0 0 -0 -1 -1 -2 -3 -4 -6 -7 -7 -7 -8 -8 -8 -9 -8 -8 -9 -9 -9 -8 -8 -8 -8 -8 -8 -8 -8 -7 -7 -7 -7 -7 -7 -7 -6 -6 -6 -5 -5 -5 -5 -4 -4 -4 -3 -3 -3 -3 -2 -2 -2 -2 -2 -2 -2 -2 -2 -2 -2 -3 -3 -4 -5 -6 -6 -7 -7 -7 -8 -7 -8 -9 -9 -8 -10
0 -0 -1 -1 -2 -2 -2 -2 -3 -3 -3 -3 -3 -4 -5 -6 -6 -7 -7 -8 -9 -9 -9 -9 -9 -9 -9 -9 -9 -9 -9 -9 -8 -8 -8 -8 -8 -8 -8 -8 -8 -7 -7 -7 -7 -6 -6 -6 -5 -5 -5 -4 -4 -4 -3 -3 -3 -3 -2 -2 -2 -2 -2 -2 -2 -2 -2 -2 -2 -3 -4 -5 -7 -8 -8 -8 -8 -9 -9 -9 -9 -9 -9 -10 -12
-1 -2 -3 -3 -3 -3 -4 -5 -6 -6 -5 -5 -5 -5 -5 -6 -7 -7 -8 -8 -9 -9 -9 -9 -9 -10 -10 -9 -9 -9 -9 -9 -9 -9 -9 -9 -9 -9 -9 -8 -8 -8 -8 -7 -7 -6 -6 -5 -5 -5 -5 -4 -4 -4 -3 -3 -3 -3 -2 -2 -2 -2 -2 -2 -2 -2 -2 -2 -3 -3 -5 -6 -8 -8 -9 -9 -10 -10 -10 -10 -10 -10 -10 -11 -13
-3 -4 -4 -4 -5 -6 -7 -7 -7 -7 -7 -7 -6 -6 -5 -5 -6 -7 -9 -9 -9 -9 -10 -10 -10 -10 -10 -10 -10 -10 -10 -10 -10 -10 -10 -10 -9 -9 -9 -9 -9 -8 -8 -7 -7 -7 -6 -6 -6 -5 -5 -5 -4 -4 -3 -3 -3 -3 -2 -2 -2 -2 -2 -2 -2 -2 -2 -3 -3 -4 -5 -7 -8 -9 -9 -10 -10 -11 -11 -11 -11 -11 -11 -12 -13
-4 -4 -5 -6 -7 -8 -8 -8 -8 -8 -7 -7 -8 -8 -9 -8 -7 -8 -9 -9 -10 -10 -10 -10 -11 -11 -11 -11 -11 -11 -11 -11 -11 -11 -11 -10 -10 -10 -10 -9 -9 -8 -8 -8 -8 -7 -7 -7 -6 -6 -6 -5 -4 -4 -3 -3 -3 -3 -2 -2 -2 -2 -2 -2 -2 -2 -3 -3 -4 -5 -6 -7 -8 -9 -10 -10 -11 -11 -11 -11 -11 -11 -12 -12 -13
-4 -5 -6 -7 -8 -8 -9 -9 -8 -8 -9 -10 -10 -11 -13 -13 -12 -11 -9 -9 -10 -10 -11 -11 -12 -12 -12 -13 -12 -12 -12 -12 -12 -12 -11 -11 -11 -11 -10 -10 -9 -9 -9 -9 -9 -8 -8 -7 -7 -6 -6 -5 -5 -4 -4 -3 -3 -3 -3 -3 -2 -2 -2 -2 -2 -3 -3 -3 -4 -5 -6 -8 -9 -10 -10 -11 -11 -11 -11 -12 -12 -12 -12 -13 -14
-5 -6 -7 -8 -9 -9 -10 -10 -10 -10 -11 -12 -13 -13 -13 -14 -15 -14 -13 -12 -12 -12 -12 -13 -13 -13 -13 -13 -13 -13 -13 -13 -12 -12 -12 -12 -12 -11 -11 -11 -11 -10 -10 -10 -9 -9 -8 -8 -7 -7 -6 -6 -5 -5 -5 -5 -4 -4 -4 -3 -3 -3 -3 -3 -3 -3 -3 -4 -5 -6 -7 -8 -9 -10 -11 -11 -11 -11 -12 -12 -12 -12 -13 -14 -14
-7 -7 -8 -9 -10 -10 -10 -10 -11 -11 -12 -12 -13 -14 -14 -14 -15 -15 -15 -15 -15 -14 -14 -14 -14 -14 -14 -14 -14 -14 -13 -13 -13 -13 -13 -12 -12 -11 -11 -12 -12 -11 -11 -11 -10 -9 -9 -9 -8 -8 -7 -7 -6 -6 -6 -5 -5 -4 -4 -4 -4 -3 -3 -3 -3 -3 -4 -4 -5 -6 -7 -8 -9 -10 -11 -11 -11 -12 -12 -12 -12 -12 -13 -14 -15
-8 -9 -10 -11 -11 -11 -11 -11 -11 -11 -12 -13 -13 -14 -14 -15 -15 -15 -15 -15 -15 -15 -15 -14 -14 -14 -14 -14 -14 -14 -14 -14 -14 -13 -13 -13 -12 -12 -12 -12 -12 -12 -11 -11 -11 -10 -10 -9 -8 -8 -8 -7 -7 -7 -7 -6 -6 -6 -5 -5 -4 -4 -4 -3 -4 -4 -4 -5 -6 -7 -8 -9 -10 -10 -11 -11 -11 -11 -12 -12 -12 -13 -13 -14 -15
-9 -11 -12 -13 -12 -11 -11 -11 -11 -12 -12 -13 -14 -14 -14 -14 -15 -15 -16 -16 -16 -16 -16 -15 -15 -15 -15 -14 -15 -15 -15 -15 -14 -14 -14 -13 -13 -13 -13 -13 -12 -12 -12 -11 -11 -10 -10 -9 -9 -9 -9 -9 -9 -9 -9 -8 -7 -7 -6 -5 -5 -4 -4 -4 -4 -4 -5 -6 -7 -8 -8 -9 -10 -11 -11 -11 -12 -12 -12 -12 -13 -13 -14 -14 -15
-11 -12 -13 -13 -12 -12 -11 -11 -12 -12 -13 -13 -14 -14 -15 -15 -15 -16 -16 -16 -16 -16 -16 -16 -16 -16 -15 -15 -15 -15 -15 -15 -15 -15 -14 -14 -14 -14 -13 -13 -13 -12 -12 -11 -11 -11 -11 -11 -11 -11 -12 -12 -11 -11 -10 -9 -8 -8 -7 -6 -6 -5 -5 -4 -4 -5 -6 -6 -7 -8 -9 -10 -10 -11 -11 -11 -12 -12 -12 -13 -13 -14 -14 -15 -15
-13 -13 -13 -13 -13 -12 -12 -12 -12 -13 -14 -14 -14 -15 -15 -15 -16 -16 -16 -16 -16 -16 -16 -16 -16 -16 -16 -16 -16 -16 -16 -16 -15 -15 -15 -15 -15 -14 -14 -14 -14 -13 -13 -13 -13 -13 -13 -14 -14 -14 -14 -13 -13 -12 -11 -10 -9 -8 -7 -7 -6 -5 -5 -5 -5 -6 -6 -7 -8 -9 -9 -10 -11 -11 -11 -11 -12 -12 -13 -13 -13 -14 -15 -15 -15
-13 -14 -13 -13 -12 -12 -12 -13 -13 -14 -15 -15 -15 -15 -16 -16 -16 -16 -17 -17 -17 -17 -17 -17 -16 -16 -16 -16 -16 -16 -16 -16 -16 -16 -16 -15 -15 -15 -15 -15 -15 -15 -15 -15 -15 -15 -15 -16 -16 -16 -15 -14 -14 -13 -12 -11 -10 -9 -8 -7 -6 -6 -6 -6 -6 -6 -7 -8 -8 -9 -10 -11 -11 -11 -11 -12 -12 -12 -13 -13 -14 -14 -14 -15 -15
-13 -13 -12 -12 -12 -12 -13 -14 -14 -15 -15 -15 -15 -16 -16 -16 -17 -17 -17 -17 -17 -17 -17 -17 -17 -17 -17 -17 -17 -16 -16 -16 -17 -16 -16 -16 -16 -16 -16 -16 -16 -16 -16 -16 -16 -17 -17 -17 -17 -17 -16 -15 -15 -14 -13 -12 -11 -10 -9 -8 -7 -7 -7 -7 -7 -7 -8 -8 -9 -10 -10 -11 -11 -11 -12 -12 -12 -13 -13 -13 -14 -14 -14 -15 -15
-12 -12 -12 -13 -13 -13 -14 -15 -15 -16 -16 -15 -16 -16 -17 -17 -17 -17 -17 -17 -17 -17 -17 -17 -17 -17 -17 -17 -17 -17 -17 -17 -17 -17 -17 -17 -17 -17 -17 -17 -17 -17 -17 -17 -18 -18 -18 -18 -18 -17 -17 -17 -16 -15 -14 -13 -12 -11 -10 -9 -9 -8 -8 -8 -8 -8 -8 -9 -9 -10 -11 -11 -11 -12 -12 -12 -13 -13 -13 -14 -14 -14 -15 -16 -16
-12 -12 -13 -13 -14 -15 -15 -16 -16 -16 -16 -16 -16 -17 -17 -17 -17 -17 -17 -17 -17 -17 -17 -17 -17 -17 -17 -18 -18 -18 -18 -18 -18 -18 -18 -18 -18 -18 -18 -18 -18 -18 -18 -18 -18 -19 -19 -19 -18 -18 -18 -18 -17 -16 -15 -15 -14 -13 -11 -11 -10 -9 -9 -9 -9 -9 -9 -10 -10 -10 -11 -11 -12 -12 -12 -13 -13 -13 -14 -14 -14 -15 -15 -16 -17
-13 -13 -13 -14 -15 -15 -16 -16 -16 -16 -17 -17 -17 -17 -17 -17 -17 -17 -17 -18 -17 -18 -18 -18 -18 -18 -18 -18 -18 -18 -18 -18 -18 -18 -18 -18 -18 -18 -18 -18 -18 -18 -18 -18 -19 -19 -19 -19 -19 -19 -19 -18 -18 -17 -17 -16 -15 -13 -12 -12 -11 -10 -10 -10 -10 -10 -10 -10 -10 -11 -11 -12 -12 -12 -13 -13 -13 -14 -14 -14 -15 -15 -16 -16 -17
-13 -14 -14 -15 -15 -16 -16 -16 -17 -17 -17 -17 -17 -17 -17 -17 -18 -18 -18 -18 -18 -18 -18 -18 -18 -18 -18 -18 -18 -19 -19 -19 -19 -19 -19 -19 -18 -18 -18 -18 -18 -18 -18 -18 -19 -19 -19 -19 -19 -19 -19 -19 -18 -17 -16 -16 -15 -14 -13 -12 -12 -11 -11 -11 -10 -10 -10 -11 -11 -11 -12 -12 -12 -13 -13 -13 -14 -14 -14 -15 -15 -15 -16 -16 -17
-14 -14 -15 -15 -16 -16 -16 -16 -17 -17 -17 -18 -18 -18 -18 -18 -18 -18 -18 -18 -18 -18 -18 -18 -18 -19 -19 -19 -19 -19 -19 -19 -19 -19 -19 -19 -19 -19 -19 -19 -18 -18 -18 -18 -18 -18 -19 -19 -19 -19 -19 -19 -18 -17 -16 -16 -15 -14 -14 -13 -12 -12 -12 -11 -11 -11 -11 -11 -11 -12 -12 -12 -13 -13 -13 -14 -14 -14 -15 -15 -15 -15 -16 -16 -16
-14 -15 -15 -15 -16 -16 -17 -17 -17 -17 -18 -18 -18 -18 -18 -18 -18 -18 -18 -18 -18 -18 -19 -19 -19 -19 -19 -19 -19 -19 -19 -19 -19 -19 -19 -19 -19 -19 -19 -19 -19 -18 -18 -17 -17 -18 -18 -18 -18 -18 -19 -18 -18 -17 -17 -16 -16 -15 -15 -14 -13 -13 -13 -12 -12 -12 -12 -12 -12 -12 -12 -12 -13 -13 -13 -14 -14 -14 -15 -15 -15 -15 -16 -16 -16
-15 -15 -16 -16 -16 -17 -17 -17 -17 -18 -18 -18 -18 -18 -18 -18 -18 -18 -18 -18 -18 -19 -19 -19 -19 -19 -19 -19 -19 -19 -19 -19 -19 -19 -19 -19 -19 -19 -18 -18 -19 -19 -18 -17 -17 -17 -17 -16 -16 -17 -17 -18 -17 -17 -17 -17 -17 -16 -15 -15 -14 -14 -14 -13 -13 -12 -12 -12 -12 -12 -12 -13 -13 -13 -14 -14 -14 -14 -15 -15 -15 -16 -16 -16 -16
-16 -16 -16 -16 -17 -17 -17 -17 -17 -17 -17 -18 -18 -18 -18 -18 -18 -18 -18 -19 -19 -19 -19 -19 -19 -19 -20 -20 -20 -20 -20 -20 -19 -19 -19 -19 -19 -19 -18 -18 -18 -18 -18 -17 -17 -17 -17 -16 -15 -15 -16 -16 -16 -16 -17 -17 -17 -16 -16 -16 -15 -15 -14 -14 -13 -13 -13 -13 -13 -13 -13 -13 -13 -14 -14 -14 -14 -15 -15 -15 -15 -16 -16 -16 -17
-16 -16 -16 -16 -17 -17 -17 -17 -17 -17 -17 -17 -18 -18 -18 -18 -18 -18 -19 -19 -19 -19 -19 -19 -20 -20 -20 -20 -20 -20 -20 -20 -20 -19 -19 -19 -19 -19 -19 -18 -18 -18 -17 -17 -17 -17 -17 -16 -16 -15 -15 -15 -15 -15 -15 -16 -16 -16 -16 -16 -16 -15 -15 -14 -14 -14 -13 -13 -13 -13 -13 -13 -14 -14 -15 -15 -15 -15 -15 -15 -15 -16 -16 -16 -17
-16 -16 -16 -16 -16 -16 -17 -17 -16 -16 -17 -17 -18 -18 -18 -18 -18 -18 -19 -19 -20 -20 -20 -20 -20 -20 -20 -20 -20 -20 -20 -20 -20 -20 -19 -19 -19 -19 -19 -19 -18 -18 -17 -17 -17 -17 -17 -17 -16 -16 -15 -15 -15 -15 -15 -15 -15 -15 -15 -15 -15 -15 -15 -14 -14 -14 -14 -14 -14 -14 -14 -14 -14 -15 -15 -15 -15 -14 -14 -15 -15 -15 -16 -16 -17
Height
831 832 833 834 835 836 837 837 838 839 839 840 841 842 842 843 844 844 844 843 842 842 842 841 841 840 840 840 839 839 838 838 837 836 836 835 834 833 832 831 830 829 827 826 825 825 824 822 821 819 819 819 817 816 815 815 815 813 813 812 810 810 809 806 802 789 775 776 780 780 779 779 776 774 775 773 773 773 772 771 771 770 768 767 765
832 833 834 835 836 836 837 838 838 839 839 840 841 842 843 843 844 844 844 844 842 842 841 841 841 841 840 840 839 839 838 837 837 836 835 834 833 832 831 830 829 827 826 825 823 823 822 820 818 816 816 816 814 813 812 811 812 810 809 809 806 805 806 803 799 793 780 772 775 777 777 776 772 770 770 769 768 767 766 766 766 765 763 762 761
833 834 835 836 837 838 838 838 839 839 840 840 841 842 843 844 844 845 844 844 843 842 842 842 842 841 841 840 839 839 838 837 836 835 834 833 832 831 830 829 828 826 825 823 822 821 820 818 816 815 814 813 811 810 810 808 808 806 804 804 803 800 801 801 797 793 784 773 770 772 773 772 768 766 766 765 764 763 761 760 761 760 759 758 757
834 835 836 837 838 839 839 840 840 840 840 841 841 842 843 844 844 845 845 844 843 843 843 842 842 841 841 840 839 838 837 836 835 834 833 832 831 830 829 827 826 825 823 822 821 819 818 815 813 813 812 810 808 807 806 805 804 803 801 799 799 796 795 796 794 790 786 776 768 767 769 768 765 763 763 761 759 759 757 755 755 755 754 754 753
835 836 837 838 839 839 840 841 841 841 841 841 841 842 843 844 844 845 845 845 844 843 843 842 842 841 840 839 838 837 836 835 834 833 832 831 830 829 827 826 825 824 822 820 819 817 815 813 811 811 809 807 806 804 803 802 800 799 797 795 794 793 791 791 790 787 784 778 769 764 765 765 762 760 760 758 756 754 753 752 751 750 750 749 748
836 837 838 838 839 840 841 841 841 842 842 843 842 842 843 844 844 845 845 844 844 843 842 842 841 840 839 838 837 836 835 835 833 832 831 830 829 828 827 825 824 822 821 819 817 816 814 812 809 808 808 805 803 801 800 799 797 795 794 792 791 790 788 786 785 784 781 776 770 764 761 761 759 756 756 755 753 751 750 748 746 746 745 744 744
836 837 838 838 839 840 841 842 842 843 844 844 843 842 842 843 844 844 844 843 843 842 842 841 840 840 839 838 837 836 835 834 833 832 831 830 829 827 826 825 823 821 820 818 816 814 812 810 808 806 805 803 801 799 797 796 794 792 790 789 787 786 784 782 781 780 777 773 769 764 759 757 755 754 752 752 750 748 748 746 743 741 741 741 739
836 837 837 838 840 841 842 842 842 843 844 845 844 843 842 843 843 843 843 842 842 841 841 840 840 839 839 838 837 836 835 834 833 832 831 829 828 827 825 823 821 819 818 816 815 813 811 808 807 805 803 801 799 797 795 793 791 788 785 785 785 783 780 779 777 776 774 770 766 762 758 754 751 751 750 748 746 745 745 744 740 738 738 737 736
835 837 837 838 841 842 843 843 843 844 845 845 845 843 842 842 842 842 842 841 841 841 840 840 839 838 838 837 837 836 835 834 833 831 830 828 827 825 824 822 820 817 815 813 811 810 808 806 804 803 801 799 797 794 792 790 789 785 781 781 782 780 777 775 773 771 770 767 762 759 756 751 748 748 747 744 742 741 741 741 738 736 736 734 733
836 837 838 839 841 842 843 843 843 843 844 844 844 842 841 841 840 840 840 840 840 840 839 839 838 837 837 836 835 835 834 833 832 830 829 827 825 823 821 819 817 815 812 809 807 805 803 802 800 798 797 795 793 791 788 786 785 782 779 778 777 776 774 771 769 767 766 763 759 755 752 747 744 744 742 739 738 738 737 737 735 734 734 732 731
838 838 838 839 841 842 842 842 842 842 843 843 843 841 840 840 840 840 840 840 839 839 838 838 837 836 835 834 834 833 832 831 830 828 827 825 823 821 818 816 814 812 809 806 803 800 798 796 794 793 791 790 788 786 784 782 780 777 775 774 773 772 771 768 765 763 762 759 755 751 748 742 739 739 738 736 735 734 733 733 732 731 731 730 729
838 838 839 840 840 841 841 841 841 841 842 842 842 840 839 839 839 839 839 838 838 837 837 836 835 835 834 833 832 831 830 829 828 826 824 822 821 818 815 813 810 808 806 803 800 796 793 791 789 787 786 784 782 780 777 775 773 772 770 768 767 766 765 764 761 759 758 755 750 746 742 738 735 734 734 733 732 730 729 728 728 728 727 727 726
839 838 839 840 840 840 840 839 840 840 841 841 841 840 839 838 838 838 837 837 836 836 835 834 834 833 832 831 830 829 828 827 825 824 822 820 818 815 812 810 807 804 802 799 796 793 790 787 784 781 780 779 777 774 772 769 766 765 763 761 760 758 757 757 756 755 753 750 745 740 737 735 733 731 731 731 729 727 725 724 724 723 723 722 721
838 838 839 841 841 840 838 837 838 839 840 840 839 838 838 837 837 837 836 836 835 834 834 833 832 831 830 828 827 826 825 824 822 821 819 817 815 813 810 807 804 801 798 795 793 789 787 784 780 776 774 773 771 769 767 764 761 759 757 755 753 751 749 748 748 748 747 744 740 736 733 732 730 727 727 727 726 724 722 721 720 719 718 717 717
837 838 839 841 842 840 837 836 837 838 839 839 838 837 837 836 835 835 834 834 834 833 832 831 830 829 828 826 824 823 823 822 820 819 817 815 812 809 807 804 800 797 794 792 789 786 783 781 778 774 770 767 766 765 763 760 758 755 752 749 746 744 742 740 740 740 739 737 735 731 728 727 725 723 722 722 721 720 719 718 717 716 715 714 714
836 838 839 841 841 839 836 835 836 837 837 837 837 836 835 835 834 834 833 833 832 831 830 829 828 827 826 824 822 820 820 820 818 816 814 812 810 806 803 800 797 794 790 787 785 782 780 777 774 771 767 763 760 760 759 757 755 751 747 744 741 737 733 732 733 733 731 730 728 726 724 722 721 719 718 718 717 716 715 715 713 713 712 711 712
836 838 839 841 840 838 835 834 835 836 836 836 835 835 834 833 833 832 831 830 830 829 828 827 826 825 823 822 820 818 816 816 815 814 812 810 807 804 801 797 794 790 787 783 780 777 775 773 771 767 763 759 756 755 755 754 751 748 743 739 736 732 726 725 727 727 725 724 722 720 719 718 716 715 714 713 712 713 712 711 708 708 709 708 708
836 837 839 839 839 837 834 833 834 834 834 834 834 833 832 832 831 830 829 828 828 827 826 825 824 824 822 820 818 816 813 813 812 811 809 808 806 802 799 795 791 787 783 779 776 773 770 769 767 764 760 756 754 752 751 751 748 744 740 736 733 727 721 721 722 721 719 718 716 714 713 712 711 710 709 707 707 708 708 706 704 705 705 704 704
835 836 837 838 837 836 833 833 833 833 833 833 832 832 831 830 830 829 828 827 826 825 824 822 821 821 820 818 817 815 812 810 809 809 807 806 803 800 797 793 788 784 780 776 771 768 765 763 762 760 757 754 752 750 749 748 745 741 738 734 729 723 720 720 719 716 714 712 710 709 707 706 705 704 703 702 701 702 702 701 700 701 700 699 701
834 835 836 836 836 834 832 832 832 832 832 831 831 830 829 829 828 827 826 826 825 823 823 821 819 818 817 816 814 813 811 808 806 805 804 803 800 798 795 791 787 783 779 774 768 764 761 759 756 754 752 751 749 747 746 744 742 739 736 732 726 721 719 718 716 713 710 707 705 703 701 700 699 698 697 696 695 695 695 695 694 694 693 694 696
833 834 835 835 834 832 831 831 830 830 830 829 829 829 828 827 826 826 825 824 823 822 821 820 817 815 814 813 811 810 808 805 802 800 799 798 797 795 793 789 786 782 778 773 768 762 759 756 752 749 748 746 745 743 742 740 737 735 732 728 724 721 719 716 712 709 707 703 700 698 695 694 694 692 691 691 690 689 689 689 688 689 688 689 690
832 833 833 833 831 830 829 829 828 828 828 828 827 827 827 826 825 825 824 823 821 821 820 818 816 813 811 809 807 806 804 801 799 797 796 794 793 792 790 787 785 781 776 771 766 761 758 754 749 746 744 742 740 738 736 734 732 729 726 724 721 719 716 713 709 706 702 699 696 693 691 689 689 687 686 685 685 684 684 684 684 684 684 684 685
831 832 831 830 829 828 828 827 827 827 826 826 826 826 825 825 825 824 823 822 820 819 818 817 815 812 808 804 802 801 800 798 795 794 792 790 788 788 786 784 782 780 776 770 765 761 757 752 747 743 740 738 735 733 730 728 725 723 720 718 716 714 712 709 705 702 698 694 691 688 686 685 684 682 681 680 680 680 680 680 680 680 681 681 682
830 830 829 828 827 826 826 826 825 825 825 825 825 825 824 824 823 823 822 821 820 819 818 817 815 811 807 802 798 796 795 793 792 790 789 787 785 783 782 780 778 776 773 769 764 760 755 750 744 740 736 734 731 728 725 722 720 717 715 713 711 709 707 703 701 698 693 690 687 684 681 681 680 678 677 676 676 677 677 677 678 678 678 679 680
827 827 826 825 825 825 824 825 824 824 824 824 823 823 823 822 822 822 821 820 820 819 817 816 815 812 808 803 798 794 791 789 788 786 785 784 782 780 778 775 773 772 769 765 761 757 752 747 742 737 733 729 726 722 719 715 713 711 709 708 706 704 701 698 696 693 689 685 682 680 677 676 676 674 673 673 674 674 675 675 676 676 677 677 679
825 824 824 823 823 823 823 823 823 823 823 823 823 822 822 821 821 821 820 819 819 818 817 816 814 811 808 804 800 794 789 787 785 783 782 780 778 776 773 770 768 766 764 760 756 752 747 742 738 733 728 725 721 718 714 710 708 705 703 702 700 698 695 693 691 689 685 681 678 676 674 673 672 671 670 671 671 671 672 673 674 675 676 676 678
822 821 821 821 821 822 822 822 822 822 822 822 822 821 821 820 820 820 819 818 817 817 816 815 813 810 806 803 800 795 789 786 784 782 780 777 774 771 768 765 762 760 758 754 751 746 741 736 733 729 724 720 717 713 709 706 703 700 697 695 694 692 690 689 687 684 682 678 675 672 671 670 669 668 668 669 669 669 670 671 672 674 675 676 678
819 819 819 820 820 820 820 821 821 821 821 820 820 819 819 818 818 819 819 818 816 816 815 814 813 811 807 804 800 795 789 785 784 783 781 778 774 770 766 762 759 756 754 750 746 741 735 731 727 723 719 715 711 707 704 701 698 695 693 691 688 686 685 683 681 679 677 675 672 669 668 667 666 666 666 667 667 668 669 670 670 672 674 675 678
818 818 819 819 819 819 820 820 820 820 819 818 818 818 818 817 817 817 818 818 817 816 815 813 812 810 808 805 803 799 792 786 784 783 782 778 775 771 767 763 759 756 753 749 743 737 731 726 722 718 714 710 706 702 699 696 694 691 688 685 683 681 680 678 676 674 673 671 668 667 665 665 665 665 665 665 666 666 667 668 669 671 673 674 677
816 817 817 818 818 819 819 819 819 818 817 816 816 815 815 816 816 815 816 816 817 816 815 814 812 810 807 804 803 802 797 792 787 784 781 776 772 768 764 760 758 755 751 747 741 734 728 723 719 716 713 709 704 699 696 693 689 685 682 680 678 677 675 674 672 670 668 666 665 663 663 663 663 664 664 664 665 665 667 668 668 670 671 673 677
815 815 816 817 817 818 818 818 818 817 816 815 814 812 811 811 811 813 814 814 813 813 812 812 811 810 807 803 799 797 795 792 789 786 781 777 772 766 760 756 753 751 748 744 739 733 728 723 718 714 711 707 702 697 693 689 685 681 678 676 674 673 671 669 667 665 663 662 661 660 660 660 661 661 662 663 663 664 666 667 669 670 671 672 675
813 813 815 816 817 817 818 817 816 816 815 814 814 812 810 807 805 806 808 810 810 810 810 809 808 807 806 804 800 794 789 786 783 781 778 775 771 766 761 755 750 748 745 742 737 733 729 724 718 712 708 704 699 694 690 685 682 678 675 672 670 668 667 665 663 661 660 658 657 657 657 658 659 660 660 661 662 663 665 667 668 670 672 673 675
811 813 814 815 816 817 816 816 815 815 814 814 813 812 811 809 806 802 801 801 803 805 806 806 805 803 802 801 800 796 791 786 782 777 774 770 767 763 759 755 751 747 744 740 736 731 727 722 717 712 707 702 696 692 688 684 680 677 674 671 668 665 663 661 660 658 656 655 655 654 654 655 657 658 660 661 661 662 664 665 668 670 672 674 677
811 812 814 814 815 816 815 814 814 814 814 814 813 812 811 811 809 807 802 798 797 798 800 801 802 800 797 794 793 792 790 787 783 779 774 769 765 761 757 753 749 747 744 741 736 731 726 721 716 711 706 700 696 692 687 684 680 676 673 670 666 663 660 658 656 655 653 652 652 651 651 653 654 656 658 659 661 662 663 665 667 669 671 673 677
810 811 812 813 814 814 814 813 813 813 813 812 812 811 811 810 810 810 808 805 801 798 796 796 797 797 796 792 788 786 785 783 780 777 774 769 765 760 755 750 745 742 741 738 735 730 726 721 715 709 704 699 695 691 687 682 679 675 671 667 664 661 659 656 654 652 651 650 649 649 649 650 652 654 655 657 659 660 662 663 665 668 670 672 676
810 811 811 812 813 813 812 812 812 811 811 811 811 811 811 810 810 810 809 809 807 803 798 794 792 792 792 791 788 784 781 778 776 773 771 768 765 761 756 750 744 740 737 735 732 728 723 719 713 708 703 699 694 690 686 682 678 674 670 666 663 659 656 654 652 650 649 647 647 647 648 649 650 652 654 656 657 659 660 662 665 667 670 672 675
808 809 810 811 811 811 811 810 810 810 810 810 810 810 810 810 810 810 809 809 807 805 801 797 792 788 785 785 785 782 779 775 773 770 769 767 763 760 756 751 746 740 735 731 728 724 720 716 712 708 703 699 693 689 685 681 677 672 668 664 661 657 654 652 650 648 646 645 645 645 646 647 649 651 653 655 657 659 661 663 666 668 671 673 675
807 808 808 809 809 809 808 808 808 809 809 809 809 809 809 809 809 809 809 808 807 804 802 799 796 791 786 782 780 778 775 771 768 765 763 761 759 757 754 750 746 741 735 730 727 724 719 715 712 708 703 698 693 688 684 679 675 670 666 662 658 655 652 649 647 645 644 643 643 644 644 646 648 650 652 654 656 658 660 663 665 669 672 674 676
805 806 806 807 806 806 806 807 807 807 808 808 808 808 808 808 809 808 808 807 806 804 802 799 796 794 790 785 781 776 772 768 765 762 758 756 755 754 752 748 744 739 734 730 726 723 719 715 711 707 702 697 692 687 683 678 673 669 664 660 655 652 649 646 644 643 642 642 642 643 644 645 647 650 652 654 656 658 660 663 665 667 670 674 677
803 804 804 804 805 805 805 805 806 807 807 807 807 808 808 808 808 808 807 806 804 802 801 799 796 793 791 788 784 780 775 770 766 763 760 756 753 752 750 747 743 739 734 730 725 721 717 713 709 704 700 695 690 686 681 677 672 667 663 658 654 650 647 644 643 642 641 642 642 643 644 646 648 650 652 654 657 658 660 663 666 668 670 674 677
801 802 802 802 803 803 804 805 806 806 806 807 806 807 807 807 807 807 805 804 802 800 799 797 795 793 791 789 786 783 779 774 769 766 762 758 755 751 748 746 743 739 734 730 725 721 716 710 706 702 698 693 689 685 680 676 671 666 662 657 653 649 646 644 643 643 642 642 642 643 644 646 648 650 652 654 657 660 662 665 667 669 672 675 678
799 800 800 801 801 802 803 804 805 805 805 806 806 806 806 806 806 805 803 802 800 798 796 794 793 791 789 787 784 782 779 775 771 767 763 759 756 752 748 745 742 738 734 730 725 721 715 710 705 701 697 692 688 684 679 675 671 666 662 657 653 650 647 645 644 644 643 643 643 643 645 646 648 650 653 655 658 661 664 666 669 670 673 677 679
797 798 799 799 800 801 802 803 803 804 804 804 805 805 805 804 803 803 801 800 798 796 794 792 790 788 786 784 782 780 777 774 771 767 763 759 755 751 748 744 741 737 733 728 724 720 715 710 705 701 697 693 689 684 680 676 671 667 662 658 654 651 649 647 646 645 644 644 644 645 646 648 649 651 653 656 659 661 664 667 670 672 674 677 680
795 796 797 797 798 800 801 801 802 802 802 803 803 803 803 802 801 800 799 797 796 794 793 791 789 786 783 781 779 777 775 772 769 766 762 758 754 751 747 743 740 735 731 726 722 718 714 709 704 699 695 691 688 684 679 675 672 668 663 659 655 652 650 648 647 646 646 645 645 646 647 649 650 652 654 656 659 662 665 668 670 672 675 678 681
794 794 795 796 797 798 799 800 800 800 801 801 801 800 800 800 799 798 797 795 793 792 791 790 788 785 782 779 777 775 773 770 767 764 761 757 753 750 747 743 738 734 730 725 721 717 712 708 704 699 694 690 686 682 678 674 671 667 664 660 657 654 651 650 649 648 647 647 647 647 648 650 651 652 655 657 660 662 665 668 670 672 675 678 681
792 793 794 795 796 797 797 798 798 798 798 798 798 797 797 797 797 796 794 792 791 791 789 788 786 784 781 778 776 774 771 769 766 763 760 757 753 749 746 742 738 734 730 725 721 717 712 709 704 700 695 690 685 681 678 674 670 667 664 661 658 655 653 651 650 648 648 648 648 648 649 650 652 653 655 658 661 664 666 669 671 672 674 677 680
791 791 792 793 794 795 795 796 796 795 795 795 795 795 794 794 794 793 791 790 789 789 788 786 784 782 779 777 775 772 770 767 765 762 759 756 752 748 745 742 738 734 729 725 722 717 713 709 705 701 697 692 687 682 678 674 670 667 664 661 658 656 654 652 651 650 649 649 649 650 651 651 653 655 657 659 661 664 667 670 672 673 675 678 680
790 790 791 792 793 793 794 793 793 793 792 792 791 791 791 791 791 790 789 788 787 787 785 784 782 780 777 775 773 771 768 766 763 760 758 754 751 748 744 741 738 734 729 725 722 718 714 710 706 702 698 693 688 684 680 676 672 668 664 661 659 657 655 654 653 651 651 651 651 651 652 653 654 656 658 660 662 665 667 670 672 674 676 679 681
789 789 790 790 791 792 792 792 791 790 789 789 788 788 788 788 787 787 786 786 785 784 783 781 779 777 776 773 771 769 767 764 761 759 756 753 750 747 743 740 737 733 729 725 722 718 715 711 707 703 699 695 691 687 683 679 674 670 667 664 661 659 657 656 655 654 653 653 653 653 654 655 657 658 660 662 664 666 669 670 672 675 677 680 681
787 788 788 788 789 789 789 789 789 788 787 787 786 786 786 785 784 784 784 783 782 781 780 779 777 775 773 771 769 767 765 763 760 757 754 752 749 746 743 739 736 733 729 726 722 719 716 712 708 704 701 697 694 690 686 682 678 674 671 668 665 662 660 659 658 657 656 656 656 656 657 658 659 661 662 665 667 668 670 672 674 676 678 680 681
784 785 786 786 786 787 787 787 786 786 785 785 784 784 783 782 782 781 781 780 779 778 777 776 774 773 771 769 768 766 763 761 758 755 752 750 747 745 742 738 735 732 729 725 722 719 716 713 709 706 702 699 696 693 689 686 683 679 676 673 670 667 664 663 661 661 660 659 659 659 660 660 662 663 665 667 669 670 672 674 676 678 679 681 682
Wind_Speed
14 14 14 13 13 13 13 13 13 13 12 12 11 11 10 9 9 8 9 10 11 12 13 13 13 14 14 14 15 15 16 16 16 15 15 16 16 17 18 19 19 20 22 23 22 22 22 23 26 27 26 26 27 28 29 29 28 29 28 28 30 27 27 28 18 21 41 45 34 31 32 31 34 35 33 34 33 31 31 33 34 35 37 37 37
15 15 15 15 15 15 15 15 15 14 14 14 13 13 12 12 11 11 11 12 13 14 14 14 14 14 15 15 15 15 16 16 17 17 17 17 18 18 19 20 20 21 22 23 24 23 22 24 26 27 26 25 27 27 28 29 28 29 30 28 30 31 27 29 25 19 30 42 37 30 31 32 34 36 34 34 34 32 32 35 36 38 38 36 36
16 16 17 17 17 17 16 16 16 16 16 16 15 15 14 13 13 13 13 13 14 14 14 14 14 14 14 15 15 16 17 17 18 19 19 20 20 20 21 21 21 23 23 24 25 24 24 25 27 28 26 26 28 28 28 29 29 29 32 30 31 34 32 30 30 25 26 38 42 36 32 34 36 36 35 34 33 32 33 35 35 36 35 34 36
17 18 18 19 18 18 18 18 18 18 18 17 17 16 15 14 14 13 13 13 13 13 13 13 14 15 15 16 17 17 18 19 20 20 20 21 21 22 23 23 23 24 25 26 26 26 26 27 29 28 27 28 29 30 29 29 29 29 31 31 31 33 34 31 32 32 29 33 41 41 34 32 36 36 33 32 33 33 33 34 34 35 35 34 35
18 18 19 20 19 19 19 19 18 19 18 17 17 16 15 14 13 12 12 12 13 13 14 14 15 16 17 18 19 20 21 21 22 22 22 22 23 24 25 26 27 28 28 28 28 28 28 29 30 29 28 29 30 31 30 29 30 30 30 32 32 32 33 32 32 34 33 32 38 43 39 33 35 36 34 33 33 33 33 33 34 34 33 33 34
19 19 20 20 20 20 19 18 18 17 16 15 15 14 14 13 12 12 13 13 14 15 15 16 17 18 19 20 21 22 22 23 23 23 24 24 25 26 27 28 29 30 30 31 31 31 31 31 32 31 29 30 31 31 31 31 30 31 31 31 32 32 32 33 32 32 33 34 36 40 40 36 34 34 33 31 30 30 30 31 32 32 31 32 33
20 20 20 21 20 19 18 17 17 16 15 14 14 14 13 13 13 13 14 14 15 16 17 18 18 19 20 20 21 21 22 22 22 22 23 24 25 26 27 28 29 30 30 31 32 32 33 33 33 33 31 31 32 32 32 32 32 32 32 31 32 32 31 32 32 30 31 33 33 35 37 37 35 31 30 30 27 26 25 26 29 30 28 29 31
20 20 20 20 19 18 17 16 16 15 14 13 13 14 14 14 14 14 14 15 16 17 18 18 18 19 19 19 20 21 21 21 21 22 23 23 24 25 26 27 29 30 30 31 31 31 32 33 33 33 33 33 33 33 33 33 33 35 35 32 30 31 31 31 30 29 29 29 31 32 33 34 33 29 27 27 23 22 25 26 28 29 26 26 27
20 20 19 19 18 16 15 15 15 14 13 13 13 14 14 14 15 15 15 16 17 17 18 19 19 20 20 21 21 22 22 22 22 22 23 23 24 25 26 27 29 30 32 32 33 32 32 33 33 33 33 33 33 34 34 33 32 35 37 34 31 30 31 30 29 28 26 25 27 29 28 29 30 27 24 25 23 24 27 25 26 28 26 24 24
19 19 19 18 16 15 14 14 14 14 13 13 14 14 15 15 15 16 16 16 17 18 19 20 21 22 23 23 24 24 25 25 24 24 24 24 25 26 27 28 29 31 33 34 35 36 35 35 35 34 33 33 33 33 34 34 33 34 36 35 33 32 32 32 31 28 25 23 26 27 23 24 29 28 26 28 27 26 27 24 25 26 21 17 18
18 18 18 17 15 14 14 14 14 14 14 14 14 15 15 15 16 16 16 17 18 20 21 22 23 23 24 25 25 26 27 27 28 28 28 28 28 28 29 31 32 32 33 35 36 38 38 37 37 36 35 34 34 34 33 34 34 34 35 34 33 33 33 33 34 31 26 24 27 28 24 25 31 31 28 29 28 26 27 27 25 22 18 13 10
17 17 16 15 14 14 13 13 13 13 13 13 14 15 15 15 16 17 17 19 20 22 23 23 24 24 25 25 26 27 28 29 29 30 30 30 30 30 31 32 34 35 35 35 37 38 39 40 39 38 36 35 35 35 35 36 35 34 34 34 33 33 33 34 35 35 32 29 28 30 30 29 31 31 28 26 26 27 27 27 25 23 21 17 13
16 16 15 13 13 13 12 13 13 13 13 13 14 15 16 17 18 18 19 21 22 23 24 24 25 25 26 26 27 28 29 30 30 31 31 32 32 31 33 34 35 36 37 37 38 39 39 40 40 40 39 36 35 36 36 37 37 35 34 33 33 34 34 34 35 36 38 37 34 34 36 34 30 31 31 27 26 26 25 23 25 25 23 22 23
15 14 13 12 11 11 12 13 13 13 13 14 14 16 17 18 19 19 20 22 23 24 24 25 26 26 27 28 29 30 30 31 32 32 33 34 34 33 34 36 37 38 39 39 39 40 40 39 39 41 42 40 38 37 37 38 37 36 35 34 35 36 36 36 35 34 37 40 40 40 42 41 36 37 38 34 30 29 26 24 25 27 26 27 29
14 13 12 11 10 11 12 12 12 13 13 14 15 17 18 18 19 19 21 22 23 24 25 26 27 28 29 30 31 32 32 32 34 34 34 35 36 36 37 37 39 41 42 42 42 42 41 40 39 41 43 44 43 40 38 38 37 37 37 37 37 38 38 38 35 34 36 39 41 42 44 45 43 43 42 39 35 34 32 30 29 29 28 27 25
13 12 10 9 9 10 12 12 12 13 13 15 16 17 18 19 19 20 22 23 24 25 26 27 28 30 31 31 32 35 36 34 34 36 37 36 37 38 39 39 40 42 44 46 45 44 43 41 40 41 43 45 46 43 40 37 36 37 38 39 40 40 41 40 36 34 36 37 38 41 42 43 43 43 42 40 37 36 33 30 29 27 23 19 17
12 10 8 7 8 9 10 11 12 13 14 15 16 17 18 19 20 21 23 25 26 27 28 29 29 30 32 33 33 36 39 38 36 37 39 38 38 39 40 40 41 42 45 47 48 46 45 43 41 41 43 46 48 47 43 38 36 37 38 39 40 41 44 42 36 33 34 34 35 38 38 39 40 39 40 39 37 35 29 25 26 25 20 14 11
10 8 6 5 6 8 10 11 12 13 14 15 16 17 19 20 21 22 24 26 27 27 29 30 31 31 33 34 35 36 40 41 39 38 39 39 38 38 39 39 40 42 45 47 49 48 47 45 44 42 44 46 47 47 44 40 37 37 38 38 38 40 43 41 35 33 32 31 32 33 34 35 36 36 37 38 37 34 28 27 28 23 20 16 11
9 7 5 4 5 7 10 11 12 13 14 15 16 18 19 20 22 23 24 25 27 28 29 31 33 34 34 35 36 37 39 42 42 40 39 39 39 38 38 38 39 41 43 46 49 49 48 47 46 45 44 44 43 43 42 39 37 36 37 36 35 37 41 39 35 35 34 31 31 31 31 33 33 33 35 36 36 34 30 30 31 25 23 21 15
8 6 5 4 5 7 10 11 12 13 14 16 17 18 19 21 22 24 25 26 28 29 30 32 35 36 36 36 38 38 39 42 44 43 40 39 39 38 38 37 38 40 41 43 46 47 48 48 47 47 45 43 42 41 39 38 37 36 37 36 34 36 39 39 38 38 36 35 35 34 33 33 32 32 33 34 34 33 30 30 31 31 29 24 20
7 6 5 5 6 9 10 11 12 13 15 16 17 18 20 22 23 25 26 27 29 30 32 33 35 37 38 39 39 40 40 40 42 43 41 39 39 37 36 37 37 38 40 41 43 43 44 46 47 47 46 44 43 41 38 38 38 38 37 37 37 38 40 40 41 41 39 37 37 35 33 32 30 30 31 31 31 32 30 29 30 32 33 28 24
7 6 5 6 8 10 11 12 13 14 15 16 17 18 20 21 23 24 26 28 29 31 32 33 35 38 40 41 41 40 41 41 41 41 40 40 40 37 35 35 35 35 37 39 40 41 41 43 45 46 46 46 45 43 42 41 40 39 39 39 39 41 41 41 41 41 39 37 34 32 31 29 28 28 28 28 28 28 28 28 28 30 34 33 29
7 6 6 7 9 11 12 13 14 15 15 16 17 19 20 21 23 24 26 28 30 31 31 31 33 36 40 43 43 41 40 40 41 40 40 41 40 37 33 33 33 32 34 36 38 39 40 42 45 47 48 48 47 46 45 44 42 41 41 40 40 40 40 40 39 39 38 36 32 30 29 28 27 27 27 27 26 25 24 24 24 26 29 29 27
7 7 7 9 10 11 12 13 13 14 15 16 18 19 21 22 24 25 27 28 29 30 30 29 30 33 36 40 43 43 42 42 42 41 41 41 40 36 33 33 33 33 34 36 37 38 40 43 46 48 49 49 48 47 47 46 44 43 42 41 41 40 38 36 36 36 36 33 30 28 28 28 27 27 27 25 22 21 20 20 21 22 23 23 23
8 8 8 9 10 10 10 11 12 14 15 17 19 20 22 24 25 26 27 28 27 27 28 28 28 30 32 35 39 44 45 44 44 43 42 41 39 36 34 35 36 36 36 38 39 39 42 44 46 47 48 48 47 47 46 46 46 45 44 43 42 40 37 34 33 33 32 31 28 27 27 27 26 26 25 22 19 18 18 17 17 18 19 20 20
8 8 9 9 9 9 9 11 12 14 15 17 19 20 22 23 24 25 26 26 26 25 26 27 27 28 30 32 36 42 45 45 44 43 43 41 40 40 40 40 40 40 40 40 40 41 43 44 45 46 47 47 46 45 44 46 47 46 44 41 38 35 33 31 29 29 29 29 28 28 27 26 25 23 21 19 18 19 18 18 19 19 20 22 22
8 8 8 8 8 9 11 12 13 14 16 17 19 20 21 22 23 23 23 24 25 24 24 24 26 28 31 33 36 40 43 43 42 42 43 43 44 46 46 45 44 43 42 41 42 44 46 46 46 46 46 46 46 46 45 44 42 40 38 36 33 30 29 29 29 28 29 31 30 27 25 23 22 20 19 19 20 20 20 22 23 22 23 25 24
8 7 7 8 9 10 11 12 14 15 17 18 20 21 22 22 22 21 21 20 22 24 25 25 26 27 30 32 35 38 41 42 41 41 42 44 46 47 47 47 47 45 44 43 45 47 48 47 45 46 46 44 43 42 40 36 34 34 35 34 31 29 29 30 30 29 30 32 30 26 23 21 20 19 19 19 21 22 22 24 25 26 26 26 24
7 7 7 8 9 10 11 12 14 16 17 19 20 21 21 21 22 21 18 16 17 19 22 24 26 27 29 30 30 32 37 41 43 43 43 44 44 45 45 45 45 44 44 45 46 47 45 42 39 39 37 36 35 34 33 31 32 34 36 34 30 28 28 27 27 27 29 30 28 26 23 20 19 18 19 20 21 23 24 24 26 27 26 24 22
7 7 7 8 9 10 11 12 13 15 17 19 22 23 22 22 21 19 17 15 15 16 17 20 22 24 27 30 29 28 32 37 41 42 43 43 44 44 44 44 43 43 43 43 44 43 39 34 32 31 30 31 32 32 31 31 30 31 32 30 27 25 26 26 27 29 30 28 26 25 23 20 19 20 21 21 21 22 23 24 26 27 25 24 22
7 8 8 8 8 9 10 11 12 14 16 18 21 25 27 27 25 20 17 18 20 20 19 19 19 19 22 27 31 32 33 35 36 38 39 40 41 43 44 45 44 43 42 42 40 37 33 30 31 33 33 32 32 31 31 32 31 30 29 27 26 26 27 28 29 29 28 26 25 23 21 21 21 22 22 22 22 22 22 22 23 23 23 25 25
7 7 7 7 7 7 8 10 12 14 16 17 19 22 26 30 31 28 24 23 24 22 19 20 21 20 19 23 28 33 37 38 39 39 38 38 39 40 41 43 44 43 42 39 35 32 31 31 33 34 33 32 32 33 34 34 32 30 28 28 28 28 28 28 28 27 26 25 24 22 21 22 22 22 22 22 22 22 22 22 21 21 21 22 24
6 6 6 6 6 6 7 9 11 13 14 16 17 19 21 24 29 32 33 33 30 24 20 23 26 25 25 26 26 29 33 35 37 39 39 39 39 39 39 40 40 38 38 35 32 31 31 31 32 34 35 35 35 35 36 35 33 31 30 31 30 29 29 29 29 27 26 25 24 23 22 22 22 21 21 22 23 22 22 22 21 21 21 21 21
5 5 5 5 5 6 7 9 10 11 12 13 15 17 19 19 21 26 32 36 35 31 28 28 29 29 32 33 31 29 29 31 33 35 37 38 39 39 39 38 36 34 33 32 32 32 32 32 34 36 36 35 36 37 37 37 36 35 34 34 35 33 30 29 28 26 25 24 24 23 22 21 22 22 22 22 21 20 21 21 21 21 22 22 22
5 5 5 5 4 5 6 8 9 10 12 13 14 16 17 19 20 21 24 27 31 33 35 35 34 32 32 33 33 32 32 32 32 33 33 34 35 36 36 37 36 35 33 32 31 32 33 34 37 37 36 37 39 39 37 36 36 35 35 36 37 36 32 28 26 26 25 24 23 22 21 22 23 24 24 23 22 21 21 22 22 23 23 23 25
5 5 5 4 3 5 6 7 9 10 11 12 14 14 16 17 18 20 21 22 25 29 34 37 40 39 35 31 31 34 35 34 34 33 31 30 31 31 32 33 34 35 35 34 34 35 37 36 35 35 38 40 40 39 38 38 39 40 39 39 38 36 32 28 27 26 25 23 22 21 21 22 23 24 23 23 23 22 22 22 23 23 24 26 27
6 6 5 4 3 5 6 7 8 10 10 11 12 13 15 16 17 18 20 21 23 26 29 33 37 39 39 37 36 36 35 34 33 32 29 28 29 29 29 30 32 35 36 36 35 36 36 35 33 35 38 40 40 41 41 40 40 40 39 39 38 35 33 31 30 27 24 22 20 21 21 22 23 24 24 22 21 20 20 22 22 21 24 27 28
7 6 5 4 4 5 6 8 8 9 10 10 11 12 14 15 16 17 19 20 22 24 27 29 30 32 36 40 41 40 38 36 35 35 34 33 31 30 30 31 32 33 35 35 34 33 33 34 36 38 39 39 40 41 40 38 37 37 37 37 37 36 35 33 30 25 21 20 19 21 22 22 23 24 23 22 22 22 22 23 24 23 24 27 26
7 6 5 4 4 5 6 7 8 8 9 9 10 11 13 14 15 17 18 20 22 22 24 26 27 28 31 36 39 40 39 37 37 39 40 39 34 32 32 32 32 32 33 34 35 35 35 37 38 39 38 38 38 39 38 37 38 38 38 37 36 36 34 30 25 21 19 18 18 19 20 21 22 23 22 22 22 23 24 25 26 27 27 26 24
7 6 5 4 4 5 6 6 6 6 7 8 9 10 12 13 15 17 18 20 21 22 22 24 26 28 30 32 33 34 36 37 37 38 39 38 36 35 34 33 32 33 33 35 37 38 39 40 41 39 37 37 37 37 36 36 36 37 37 36 35 33 30 25 20 18 17 17 17 18 18 19 20 21 21 21 22 24 25 25 25 26 27 26 25
7 6 5 4 4 4 4 4 4 5 6 7 9 10 11 13 15 17 19 20 21 22 23 24 25 27 29 29 28 29 30 32 34 35 34 34 34 35 35 34 34 34 34 36 38 40 41 42 41 39 37 36 35 35 34 35 34 34 34 33 32 29 24 19 16 15 15 15 16 17 18 19 21 21 21 21 22 23 24 24 25 26 26 26 28
7 6 5 4 4 3 3 2 3 4 5 7 8 10 12 14 15 16 18 20 21 22 24 25 26 27 28 28 27 27 27 28 29 30 31 32 33 34 35 35 36 36 36 37 38 39 39 40 39 37 36 35 35 34 33 33 33 32 31 31 29 25 21 17 14 13 13 14 15 16 17 19 20 20 20 22 24 24 23 24 25 26 26 27 30
7 6 6 5 3 2 1 1 2 4 5 7 8 10 11 13 14 16 17 19 21 22 24 25 27 28 29 29 28 27 27 27 28 28 30 31 33 35 35 36 37 38 38 38 37 36 36 36 36 35 35 34 33 32 32 31 31 31 30 29 27 24 20 17 14 13 12 12 13 15 17 18 19 20 21 23 25 25 25 25 26 26 27 28 30
8 7 6 4 3 1 1 2 3 4 5 7 9 10 11 12 14 15 17 19 20 21 23 25 27 28 29 30 29 29 28 28 28 28 29 31 33 34 35 36 37 38 38 38 37 35 34 34 35 35 34 33 32 32 31 30 30 28 27 26 25 23 20 16 14 12 11 12 13 15 17 19 20 21 23 26 26 26 25 26 26 27 28 28 28
8 7 5 4 3 2 3 3 3 5 6 7 9 11 11 12 14 16 17 19 20 21 23 25 26 27 28 29 29 29 29 30 30 29 29 30 32 34 35 36 37 37 37 37 36 34 33 32 33 34 34 34 33 33 32 31 29 26 24 23 22 21 19 16 14 12 11 12 13 15 18 20 21 22 25 26 27 27 26 27 28 29 29 29 28
8 7 5 4 4 4 4 4 4 6 7 8 10 11 12 13 15 16 17 18 19 21 23 24 25 26 27 28 28 29 29 30 30 30 30 30 31 32 34 35 36 36 36 35 35 34 33 32 32 32 33 34 34 33 32 31 29 26 24 21 19 18 18 17 15 13 11 12 13 16 18 19 21 24 26 27 27 26 26 27 29 30 30 29 29
8 7 6 5 5 5 5 5 6 7 7 8 9 11 12 14 15 16 17 18 20 21 23 24 25 26 26 27 27 28 28 29 30 30 31 31 31 32 33 34 35 35 35 35 35 35 35 34 33 32 32 33 34 33 32 31 29 27 25 22 19 17 16 16 15 12 10 11 13 16 18 20 21 24 26 28 28 27 27 27 28 28 29 29 30
8 7 6 6 6 6 7 7 7 7 8 8 10 11 13 14 16 17 17 18 20 21 23 24 25 25 26 27 27 27 27 28 29 30 30 31 31 31 32 33 34 34 34 34 34 35 35 35 34 32 32 33 34 34 34 33 32 30 27 25 22 19 16 14 13 11 8 9 11 15 18 20 22 25 26 27 27 28 28 28 27 28 28 29 29
8 7 6 6 7 7 7 7 7 8 8 8 10 12 13 15 16 17 18 19 20 22 23 24 25 26 26 27 27 28 28 28 29 29 30 31 31 31 32 32 32 33 33 34 34 34 34 34 33 33 33 34 35 35 34 34 33 32 29 27 24 20 15 12 10 7 6 7 10 14 16 19 22 24 25 26 26 27 28 28 28 28 29 28 28
8 8 7 7 7 7 7 7 7 8 8 9 11 13 14 16 17 18 19 21 22 23 24 24 25 26 27 27 28 28 28 29 28 28 29 30 30 31 31 31 32 32 32 32 32 32 32 32 31 31 32 32 33 34 34 33 33 31 28 26 22 19 15 11 7 3 3 5 8 11 14 18 21 23 24 25 25 26 27 28 28 28 28 28 28
9 8 7 7 6 6 7 7 8 9 9 11 12 14 15 17 18 19 20 21 23 24 24 25 26 26 27 27 28 28 28 29 29 28 28 28 29 30 30 31 31 31 31 31 31 31 31 31 30 30 30 30 30 31 32 32 31 29 27 26 24 20 17 12 8 4 1 3 6 9 13 18 22 23 24 25 25 26 26 27 27 27 27 27 28
Wind_Direction
119 121 121 122 121 120 119 117 114 111 107 102 95 88 81 72 65 58 54 53 50 46 41 35 30 25 21 18 14 10 6 1 356 348 341 336 330 326 325 323 321 319 318 317 316 311 306 302 301 299 298 296 293 290 289 287 285 282 279 276 272 267 261 258 256 271 279 282 282 282 284 285 285 286 286 287 287 287 289 289 289 286 285 284 280
114 115 117 118 116 115 114 112 108 105 101 96 91 86 81 75 70 66 60 55 52 48 43 39 35 31 28 24 20 16 12 7 3 358 353 348 345 342 338 334 330 327 325 324 322 318 312 306 306 306 304 300 295 293 291 289 287 283 280 277 274 272 266 262 263 269 279 284 284 283 284 284 285 286 285 285 286 287 290 292 292 288 283 280 278
112 114 114 112 111 111 110 108 106 103 99 95 90 85 80 76 71 65 61 55 51 47 43 39 35 31 28 24 20 16 12 9 5 1 357 353 350 348 343 338 335 331 328 326 323 320 315 310 311 311 308 303 299 296 295 292 290 286 283 280 275 274 271 266 265 267 274 281 283 282 283 282 282 282 283 284 285 286 289 292 291 284 279 279 279
112 114 113 110 109 110 107 106 104 101 97 93 88 83 77 73 68 61 56 52 48 44 40 36 31 27 24 21 17 14 10 7 5 1 356 352 348 346 344 339 335 331 327 326 324 321 317 313 314 314 309 304 301 300 299 296 293 290 287 283 279 276 274 268 264 264 267 275 280 281 281 281 281 282 282 283 284 286 288 291 288 281 278 279 278
113 113 112 110 108 105 103 101 99 95 92 89 85 81 74 67 61 55 50 45 42 39 34 31 27 24 21 18 15 12 9 5 3 360 356 353 349 344 342 338 335 332 329 327 326 322 318 315 314 314 310 305 303 302 300 298 296 292 289 286 283 280 278 273 266 263 263 267 275 280 282 282 281 281 281 282 284 287 287 287 283 278 277 277 275
115 113 111 108 104 101 99 96 94 90 86 83 79 76 68 60 54 49 44 40 37 34 30 27 24 21 20 17 14 11 8 5 2 358 354 350 347 343 340 337 333 332 330 329 327 324 321 318 316 314 310 304 302 302 301 299 297 294 290 288 286 283 280 277 272 267 264 264 270 277 281 281 280 281 282 283 284 285 285 284 281 276 274 275 274
117 113 110 106 102 99 96 91 89 85 80 77 73 70 65 58 52 46 41 37 33 30 28 25 22 21 18 16 13 10 8 5 1 357 353 348 344 341 337 335 332 331 329 328 327 325 322 320 318 316 312 307 304 303 301 299 298 295 291 289 289 286 282 279 276 271 267 267 268 272 277 280 280 280 282 284 283 280 278 278 278 276 273 272 272
117 112 109 105 99 96 94 90 87 82 77 73 69 67 63 56 50 45 40 36 32 27 25 21 19 18 16 14 12 9 7 5 1 356 352 347 342 337 334 332 330 328 327 326 324 324 321 319 318 316 314 311 308 305 302 299 297 295 293 291 288 286 283 281 279 274 269 268 269 271 274 277 278 278 279 279 275 272 274 270 269 273 274 271 271
115 112 108 103 98 95 92 88 84 79 75 70 64 62 58 52 46 41 36 32 28 25 21 17 13 12 11 9 8 7 5 3 0 355 351 345 339 335 331 329 327 325 324 324 322 321 320 318 316 315 313 312 311 309 306 302 296 292 292 292 288 286 284 282 279 275 272 270 270 272 273 273 275 274 273 270 265 271 278 269 261 267 270 268 266
114 111 106 102 99 96 91 85 81 75 68 62 57 53 49 45 39 35 31 26 21 18 15 13 11 8 6 5 3 3 2 359 356 352 348 344 338 333 330 327 326 324 322 322 321 320 319 317 316 315 313 312 311 311 308 306 301 294 292 291 288 284 282 281 279 275 272 270 270 272 271 270 272 270 268 269 269 273 273 261 256 261 260 258 262
113 109 105 103 100 94 88 81 75 69 61 54 49 44 41 37 33 28 25 21 17 14 11 10 9 5 2 0 358 357 356 355 352 349 346 343 338 333 329 327 325 323 321 319 319 319 318 316 315 313 311 311 311 309 307 306 303 298 295 292 288 283 279 277 277 276 273 269 269 270 267 267 271 270 269 271 272 270 265 257 252 248 240 236 246
110 106 102 100 96 91 85 77 71 64 56 50 44 40 36 31 28 24 20 17 14 11 9 6 5 2 358 355 353 352 352 352 350 347 344 342 339 334 329 326 324 322 320 318 317 316 316 314 313 310 307 307 307 306 305 304 302 298 295 292 289 285 279 275 274 274 273 270 269 268 267 267 272 273 271 271 271 269 262 254 246 239 234 229 229
107 102 99 96 92 88 83 76 69 61 53 46 39 36 31 26 24 20 16 14 11 8 6 3 1 359 355 352 349 347 349 350 348 346 344 341 339 335 330 327 324 322 320 319 316 315 313 312 311 309 307 305 303 302 302 301 299 295 292 291 289 286 281 276 273 271 271 269 267 268 270 271 273 274 274 275 274 270 262 250 243 238 233 232 235
106 100 97 95 90 87 81 73 65 57 49 41 34 30 27 23 20 18 14 11 8 5 2 360 358 357 353 349 346 345 347 348 346 345 343 341 338 334 330 327 324 322 321 319 317 315 313 310 307 307 308 306 302 301 299 298 296 292 289 287 286 285 283 279 274 271 269 266 264 266 271 274 274 275 277 277 273 270 264 255 248 242 238 242 244
106 100 97 92 87 83 76 69 61 52 43 37 31 28 25 21 18 15 12 8 5 2 360 358 356 354 352 348 344 343 344 346 345 343 341 339 337 333 329 326 323 322 320 318 316 314 312 310 307 305 306 305 303 301 298 295 293 290 288 285 284 284 282 279 275 271 269 266 263 265 270 273 275 276 279 279 275 273 270 266 262 255 248 246 241
106 100 96 88 80 75 70 64 55 47 40 35 30 26 23 20 15 12 8 5 3 0 358 356 353 351 350 347 343 341 341 343 342 340 339 337 335 331 328 325 322 320 318 317 316 313 311 309 306 304 303 303 303 302 298 294 290 287 285 284 284 284 282 280 278 275 272 269 267 268 270 273 275 277 279 280 277 277 276 271 264 256 243 233 221
109 105 98 86 74 68 64 59 51 44 38 32 28 23 20 18 14 9 5 2 1 359 355 353 351 348 346 345 341 338 338 339 339 337 336 335 333 329 326 323 320 317 316 316 314 312 310 308 305 303 301 300 302 302 300 295 289 284 282 282 283 283 283 283 283 280 277 274 272 272 273 273 275 277 279 279 277 276 274 265 255 243 226 215 209
118 115 105 86 70 61 58 55 48 42 36 30 26 22 18 15 11 7 3 359 357 356 352 349 347 345 343 341 339 335 334 334 335 334 333 332 330 328 325 322 318 315 314 314 312 310 308 307 305 302 299 299 301 302 302 298 291 284 281 280 280 280 282 286 289 287 284 281 277 276 275 274 274 276 278 279 278 275 268 259 255 239 216 216 216
129 125 114 91 72 63 58 53 47 42 36 29 25 20 16 13 8 4 0 357 354 352 349 345 342 341 340 337 335 333 331 330 330 330 329 329 328 327 325 321 316 314 313 312 310 309 307 306 305 302 300 300 302 303 303 301 295 288 284 280 277 277 282 287 290 289 287 286 282 280 278 277 276 275 276 278 278 276 268 261 257 239 220 222 212
134 130 121 100 80 69 62 54 46 41 34 28 24 18 12 8 4 0 357 354 351 348 346 343 338 336 335 333 332 330 329 328 326 326 327 327 327 326 324 319 314 313 312 310 307 306 305 305 304 303 303 303 303 304 304 302 298 294 290 284 278 279 285 289 289 288 287 286 284 282 281 280 278 274 274 274 274 273 271 266 257 240 227 224 207
135 130 123 103 80 68 61 53 45 38 30 24 20 14 9 5 1 358 354 350 347 344 342 340 337 333 331 330 330 329 328 326 325 326 327 327 326 325 322 317 314 312 310 307 304 303 303 303 303 303 303 303 304 305 304 301 299 297 293 288 285 286 289 289 288 287 286 284 283 282 281 280 278 274 271 270 269 270 270 269 261 244 231 224 210
134 130 118 95 75 64 56 49 42 33 24 18 13 8 4 1 357 354 350 346 344 342 342 341 338 333 330 329 328 328 327 327 325 326 326 325 325 324 320 316 314 313 309 305 303 302 302 302 302 302 302 303 304 304 302 300 298 296 293 291 290 290 290 289 287 286 284 281 280 279 278 277 276 273 270 266 266 267 267 266 261 246 234 228 219
133 123 104 83 69 60 51 43 35 26 18 12 7 3 358 355 353 351 348 347 345 343 344 343 339 333 330 329 328 327 327 326 325 325 325 325 325 324 321 317 316 316 312 307 306 306 305 303 301 301 301 302 302 302 300 299 297 295 294 293 292 292 291 289 287 285 281 278 276 273 274 274 272 270 269 265 262 261 260 256 249 237 229 226 221
126 108 91 76 65 55 46 37 28 19 12 6 1 358 354 352 352 351 350 350 347 344 343 342 338 333 329 326 326 327 326 325 325 325 325 325 325 324 321 318 317 316 313 308 306 305 304 302 300 299 300 299 299 299 298 297 295 294 294 295 294 291 288 285 284 283 280 276 272 270 270 270 269 268 265 260 254 250 246 241 234 224 217 213 206
113 97 84 72 60 50 38 29 22 14 8 3 359 356 353 351 350 350 350 349 347 343 340 339 336 331 326 324 324 325 325 325 325 325 326 326 325 323 319 317 315 314 311 308 305 304 302 301 299 299 299 298 298 297 295 295 295 294 294 295 293 289 285 281 280 280 278 274 271 269 269 270 268 265 260 252 242 234 227 219 211 203 196 191 183
105 92 79 64 52 41 29 21 17 11 5 3 0 357 356 353 350 349 349 347 344 341 338 337 335 329 325 323 323 322 323 323 323 325 326 326 325 323 320 318 316 315 312 310 308 307 305 303 301 300 299 298 297 295 293 293 294 293 293 293 291 286 283 280 276 276 277 275 272 269 270 269 265 258 248 236 223 217 211 198 184 174 173 169 157
98 85 72 55 41 33 25 16 12 8 3 0 358 356 356 354 349 347 346 344 341 339 337 335 333 329 325 323 322 321 320 320 322 325 326 326 324 323 321 319 318 318 316 314 313 310 307 305 303 301 300 299 297 295 294 292 290 289 291 291 288 284 283 280 275 271 274 275 273 271 269 265 257 244 229 217 210 204 197 187 173 161 160 158 145
93 79 65 51 39 30 24 15 9 6 2 359 357 355 354 352 348 346 346 343 339 337 335 332 329 326 321 320 320 320 318 318 321 323 324 323 321 320 319 318 318 318 317 315 313 310 307 304 302 301 299 298 296 295 293 290 289 290 290 289 286 285 285 283 275 269 271 273 271 269 265 255 243 229 214 205 200 191 184 179 171 161 157 153 141
96 81 64 50 39 30 24 17 11 6 2 359 357 354 352 350 346 344 347 348 341 334 329 325 325 324 319 316 316 316 314 315 317 319 319 318 318 317 316 315 315 315 315 315 314 310 306 303 301 299 298 298 297 295 293 292 291 292 289 285 282 282 284 282 275 271 274 274 267 262 256 245 229 214 202 196 192 186 180 175 169 162 157 151 142
98 84 64 49 40 31 24 20 15 10 4 359 355 351 349 349 349 348 350 350 344 337 329 323 323 322 319 317 316 311 307 308 312 316 317 317 317 317 316 315 315 315 315 316 314 309 306 304 302 302 303 302 299 295 294 292 289 287 286 284 282 286 288 283 276 274 275 272 263 256 249 234 216 204 195 189 184 181 179 175 168 162 157 148 139
96 80 63 49 40 31 24 20 15 11 7 2 356 352 348 346 349 353 354 351 348 348 346 340 334 328 323 321 319 314 311 311 313 315 316 317 318 318 317 317 318 318 319 319 316 312 310 309 307 305 302 299 295 291 291 290 287 286 288 289 289 290 288 282 277 275 273 267 259 251 241 227 213 204 195 188 181 176 175 173 168 164 159 152 146
90 76 64 54 43 33 27 22 16 11 8 4 2 358 353 348 347 347 348 349 350 352 353 350 345 339 330 325 321 318 317 317 318 318 319 319 319 319 319 319 319 321 323 322 318 313 310 307 303 302 301 297 294 291 290 289 287 286 289 290 289 288 286 283 281 278 272 263 253 244 235 224 213 204 195 186 178 172 170 170 168 163 157 152 148
89 80 73 62 48 36 29 23 18 14 10 7 4 3 0 354 347 342 341 344 349 351 350 348 345 340 333 327 322 317 316 318 319 319 320 320 321 321 320 320 320 322 325 325 319 313 309 306 304 305 304 300 300 302 303 303 302 301 301 299 294 290 288 287 285 280 271 262 251 241 232 220 207 198 191 184 177 172 169 168 166 160 153 148 145
99 94 84 69 53 41 31 25 21 17 14 12 8 4 2 359 351 344 340 340 341 341 340 341 342 340 336 332 327 322 320 319 319 319 319 319 321 322 322 322 322 324 325 323 317 312 310 309 308 306 304 304 310 315 316 315 313 311 309 307 303 299 294 290 285 279 272 261 248 236 225 213 201 192 185 180 176 172 169 166 164 160 155 150 147
117 109 94 79 61 47 36 29 25 21 17 14 11 6 2 358 352 347 341 336 332 330 330 333 336 337 336 333 330 327 325 324 321 321 321 321 322 324 325 324 324 324 323 321 316 312 311 309 306 305 307 312 315 316 314 313 314 312 309 307 306 304 301 295 287 280 271 257 242 230 218 207 199 192 185 179 175 172 170 169 167 163 158 152 148
131 122 112 102 75 57 48 38 30 26 22 16 11 6 1 356 350 344 338 331 326 323 325 328 333 336 336 335 333 330 328 326 325 324 325 325 326 326 324 321 319 319 318 317 314 311 309 306 305 308 314 315 315 315 315 315 314 312 310 308 306 305 303 298 291 281 268 252 237 225 213 203 196 191 185 181 179 176 173 170 167 162 158 153 149
136 132 131 125 90 63 52 43 34 28 24 19 11 3 358 353 347 340 333 327 324 322 322 325 330 333 335 337 337 334 330 327 326 325 326 328 329 327 322 317 315 314 313 313 313 312 311 311 313 316 317 315 314 315 314 312 311 310 309 308 307 305 302 299 292 281 264 246 231 219 209 201 196 190 184 179 178 175 170 166 162 157 156 153 149
141 139 136 120 87 64 49 42 38 32 24 16 9 1 353 346 341 334 326 323 321 320 321 323 327 329 330 333 335 336 333 330 330 330 331 333 334 332 328 324 321 318 315 316 318 319 318 319 319 318 315 313 312 312 311 310 310 309 308 308 306 304 301 297 290 276 255 238 225 216 207 199 193 189 184 178 174 170 167 163 158 152 152 153 153
145 139 133 112 78 58 46 41 35 28 19 11 2 353 344 337 332 327 322 320 318 317 318 321 323 325 327 330 333 335 334 333 332 332 333 334 335 335 333 330 328 325 322 321 322 322 321 320 319 317 314 313 312 312 312 311 311 310 309 308 306 304 301 295 283 264 243 230 221 212 203 195 189 187 184 179 174 169 164 163 160 156 155 155 155
151 146 136 116 84 59 48 41 31 20 9 359 350 343 335 328 324 320 317 315 314 315 318 319 320 324 327 329 331 334 332 330 329 330 331 331 333 334 334 332 329 327 324 323 323 323 321 320 320 319 317 315 314 314 313 312 312 313 313 310 307 304 301 293 276 255 238 227 217 207 199 191 185 182 180 178 175 169 164 162 161 158 154 153 151
154 148 135 113 89 70 54 39 20 5 354 343 338 333 327 320 316 314 314 314 313 315 318 318 318 322 326 327 329 331 330 328 327 328 329 329 330 331 332 331 328 326 324 323 323 323 322 321 321 320 319 317 316 315 315 315 316 316 316 315 312 307 301 291 273 255 240 226 214 204 196 188 182 179 177 174 170 167 163 160 157 154 150 150 151
156 148 136 119 101 84 61 26 354 340 335 331 329 324 317 313 313 313 314 314 315 316 317 317 318 322 325 327 329 332 331 329 329 329 329 329 330 330 330 330 329 327 325 324 324 324 323 322 322 321 320 319 319 319 318 318 319 320 321 321 319 313 304 293 279 261 244 227 213 202 193 185 179 176 173 169 164 162 161 158 154 151 147 146 148
161 152 140 129 119 110 52 332 322 322 321 318 315 312 309 310 313 315 315 315 316 317 317 317 319 322 325 329 332 334 333 332 332 331 331 331 331 331 331 332 332 332 330 328 328 328 327 325 323 323 323 322 322 322 321 321 324 327 327 326 323 318 309 299 286 267 245 225 210 198 186 178 173 170 168 165 162 160 159 156 153 149 146 145 146
167 157 149 141 136 153 230 276 294 301 305 303 302 306 309 311 312 314 315 316 319 319 317 317 319 321 324 329 332 334 333 332 332 333 333 334 333 332 333 334 336 337 337 336 336 336 334 331 328 328 328 329 329 330 330 330 332 333 333 331 328 323 314 304 291 274 250 224 206 193 181 173 170 168 165 163 162 159 158 156 152 148 146 147 147
172 161 156 156 166 206 236 257 277 285 292 296 299 305 312 312 310 312 315 317 319 318 316 315 317 319 322 326 329 331 331 331 332 333 334 335 335 335 335 337 339 340 341 343 344 345 343 340 337 335 335 337 339 340 341 340 338 335 334 333 331 327 319 308 296 280 256 230 209 192 179 172 170 168 165 163 163 161 158 156 154 151 150 151 151
177 168 170 181 196 222 244 260 274 280 286 294 299 305 311 309 308 311 315 317 317 315 312 312 314 316 320 323 326 327 329 330 330 331 332 334 336 337 337 338 341 342 345 348 350 351 350 349 347 344 343 344 346 348 348 348 345 341 338 335 332 327 322 314 304 290 265 238 215 194 180 173 170 168 166 164 163 161 158 157 157 155 154 154 154
183 179 186 201 218 236 251 261 273 282 288 293 298 302 306 307 308 312 316 317 315 312 310 311 313 315 318 320 322 324 326 328 328 329 331 333 337 340 340 340 341 343 347 351 353 354 356 356 355 353 351 353 356 357 356 355 354 351 348 345 341 335 329 322 313 299 270 240 215 195 182 175 170 167 166 164 163 161 160 159 158 157 156 156 155
192 194 203 218 233 249 260 266 272 280 288 296 300 302 304 307 310 314 316 315 313 311 310 311 313 315 317 317 318 320 323 325 327 329 330 333 337 341 342 343 343 344 348 352 355 356 359 0 1 360 359 0 2 2 1 1 2 0 358 355 351 346 338 328 317 301 270 234 210 195 186 178 171 168 166 165 163 162 160 158 157 156 155 155 154
204 210 222 235 244 255 265 270 277 285 294 300 302 303 306 309 310 312 312 311 309 309 310 311 313 315 315 316 317 319 320 322 325 328 330 333 337 340 343 345 346 347 349 352 354 357 359 2 4 4 4 4 5 5 4 4 6 7 5 1 356 351 346 339 327 307 269 228 205 194 186 178 171 167 165 164 163 162 159 157 156 156 155 154 153
217 223 233 242 250 259 267 272 281 292 299 301 300 302 305 306 307 309 309 307 307 308 310 311 312 314 314 315 316 317 318 319 321 325 328 331 335 338 341 344 346 348 350 352 353 355 358 1 3 5 5 6 8 9 8 8 8 9 10 8 5 3 1 357 349 326 256 219 201 191 183 174 167 163 162 162 161 160 158 157 157 157 157 156 154
222 227 234 241 248 259 270 279 288 296 299 299 300 301 303 304 305 306 306 305 305 307 309 311 312 313 313 313 314 314 315 317 319 322 325 328 332 336 339 342 345 347 349 350 352 353 356 358 1 3 3 4 7 10 12 12 11 11 12 14 15 17 18 15 11 2 300 218 195 183 175 168 163 159 159 160 161 160 159 159 159 160 159 157 156